Location: *
(28.3744°N, 81.5492°W)
Time: 03:33:37
(UTC+00:00)

ATLAS CENTAUR R/B - Pass Details

Date: 15 June 2025
Orbit: 373 x 498 km, 64.6° (Epoch: 11 July)

Event Time Altitude Azimuth Distance (km) Brightness Sun altitude
Rises 03:42:51 0° 332° (NNW) 2,576 5.9 -32.6°
Reaches altitude 10° 03:45:02 10° 331° (NNW) 1,678 4.6 -32.8°
Enters shadow 03:45:44 15° 330° (NNW) 1,398 4.1 -32.9°
